Location: Bothwell
(42.3833°S, 147.0000°E)
Time: 23:38:42
(UTC+10:00)

RS-15 - Visible Passes

Search period start: 01 October 2022 00:00
Search period end: 11 October 2022 01:00
Orbit: 1881 x 2163 km, 64.8° (Epoch: 30 September)

Date Brightness Start Highest point End Pass type
(mag) Time Alt. Az. Time Alt. Az. Time Alt. Az.
01 Oct 8.3 18:38:44 10° SSW 18:49:21 49° SE 19:00:14 10° ENE visible
01 Oct 8.4 20:51:17 10° SW 21:01:55 56° WNW 21:08:48 26° N visible
02 Oct 8.1 21:15:06 10° SW 21:26:03 71° WNW 21:34:45 20° NNE visible
02 Oct 9.8 23:30:44 10° WSW 23:36:20 15° W 23:42:04 10° NW visible
03 Oct 8.0 20:38:59 10° SW 20:50:05 88° WNW 21:00:46 13° NNE visible
03 Oct 9.5 22:53:08 10° SW 23:00:54 22° W 23:08:36 11° NW visible
04 Oct 8.0 20:02:56 10° SSW 20:14:00 76° SE 20:25:30 10° NE visible
04 Oct 9.2 22:16:15 10° SW 22:25:21 31° WNW 22:34:43 10° NNW visible
05 Oct 8.9 21:39:44 10° SW 21:49:43 41° WNW 22:00:05 10° N visible
06 Oct 8.6 21:03:23 10° SW 21:13:58 54° WNW 21:24:58 10° N visible
07 Oct 8.3 20:27:12 10° SW 20:38:07 69° WNW 20:49:29 10° NNE visible
07 Oct 9.9 22:43:10 10° WSW 22:48:20 14° W 22:53:36 10° NW visible
08 Oct 8.1 19:51:05 10° SW 20:02:10 85° WNW 20:13:42 10° NNE visible
08 Oct 9.7 22:05:23 10° WSW 22:12:55 21° W 22:20:40 10° NW visible
09 Oct 9.4 21:28:26 10° SW 21:37:23 30° WNW 21:46:39 10° NNW visible
10 Oct 9.1 20:51:52 10° SW 21:01:45 40° WNW 21:12:02 10° N visible
